Preston, Minnesota, United States (55965)
Lat: 43.67N, Lon: 92.08W
Wx Zone: MNZ095
Local Info
Past Weather Observations for Tuesday, September 1, 2015

NOTE: This archive is for the closest National Weather Service station to Preston. Information may differ from the station used for current weather conditions.

Click here for Long-term Archive

Time Weather Temperature Dewpoint Humidity Pressure Winds Precip Visibility
23:52
Clear
73°F / 23°C 70°F / 21°C 89% 30.01 in
(1016 mb)
S 5.8 mph
(S 9 kph)
- 10SM
23:33
Clear
73°F / 23°C 70°F / 21°C 89% 30.01 in
(1016 mb)
SSE 5.8 mph
(SSE 9 kph)
- 10SM
23:12
Clear
73°F / 23°C 70°F / 21°C 89% 30.01 in
(1016 mb)
SSE 6.9 mph
(SSE 11 kph)
- 7SM
22:52
Clear
73°F / 23°C 70°F / 21°C 89% 30.01 in
(1016 mb)
SW 4.6 mph
(SW 7 kph)
- 7SM
22:32
Clear
73°F / 23°C 70°F / 21°C 89% 30.01 in
(1016 mb)
SW 4.6 mph
(SW 7 kph)
- 7SM
22:12
Clear
73°F / 23°C 70°F / 21°C 89% 30.01 in
(1016 mb)
SW 4.6 mph
(SW 7 kph)
- 10SM
21:52
Clear
73°F / 23°C 72°F / 22°C 94% 30.01 in
(1016 mb)
S 5.8 mph
(S 9 kph)
- 7SM
21:32
Clear
73°F / 23°C 72°F / 22°C 94% 30.01 in
(1016 mb)
S 5.8 mph
(S 9 kph)
- 10SM
21:13
Clear
73°F / 23°C 72°F / 22°C 94% 30.01 in
(1016 mb)
SW 4.6 mph
(SW 7 kph)
- 10SM
20:52
Clear
75°F / 24°C 72°F / 22°C 89% 30.01 in
(1016 mb)
SW 4.6 mph
(SW 7 kph)
- 7SM
20:33
Clear
75°F / 24°C 72°F / 22°C 89% 30.01 in
(1016 mb)
SSE 4.6 mph
(SSE 7 kph)
- 10SM
20:12
Clear
75°F / 24°C 72°F / 22°C 89% 29.98 in
(1015 mb)
SSE 4.6 mph
(SSE 7 kph)
- 10SM
19:52
Clear
75°F / 24°C 72°F / 22°C 89% 29.98 in
(1015 mb)
S 5.8 mph
(S 9 kph)
- 10SM
19:33
Clear
75°F / 24°C 72°F / 22°C 89% 29.98 in
(1015 mb)
S 4.6 mph
(S 7 kph)
- 7SM
19:12
Clear
77°F / 25°C 72°F / 22°C 83% 29.98 in
(1015 mb)
S 4.6 mph
(S 7 kph)
- 10SM
18:52
Partly Cloudy
77°F / 25°C 72°F / 22°C 83% 29.98 in
(1015 mb)
S 4.6 mph
(S 7 kph)
- 7SM
18:33
Clear
77°F / 25°C 72°F / 22°C 83% 29.98 in
(1015 mb)
S 4.6 mph
(S 7 kph)
- 7SM
18:12
Clear
79°F / 26°C 72°F / 22°C 79% 29.98 in
(1015 mb)
S 3.5 mph
(S 6 kph)
- 10SM
17:52
Clear
81°F / 27°C 72°F / 22°C 74% 29.95 in
(1014 mb)
S 4.6 mph
(S 7 kph)
- 7SM
17:33
Clear
81°F / 27°C 72°F / 22°C 74% 29.98 in
(1015 mb)
SSE 5.8 mph
(SSE 9 kph)
- 7SM
17:12
Clear
81°F / 27°C 72°F / 22°C 74% 29.95 in
(1014 mb)
SSE 5.8 mph
(SSE 9 kph)
- 7SM
16:52
Clear
81°F / 27°C 72°F / 22°C 74% 29.95 in
(1014 mb)
SSE 4.6 mph
(SSE 7 kph)
- 7SM
16:33
Clear
81°F / 27°C 72°F / 22°C 74% 29.95 in
(1014 mb)
SSE 6.9 mph
(SSE 11 kph)
- 10SM
16:13
Clear
82°F / 28°C 72°F / 22°C 70% 29.95 in
(1014 mb)
SSE 10.4 mph
(SSE 17 kph)
- 10SM
15:52
Clear
82°F / 28°C 72°F / 22°C 70% 29.95 in
(1014 mb)
SSE 9.2 mph
(SSE 15 kph)
- 10SM
15:32
Partly Cloudy
82°F / 28°C 72°F / 22°C 70% 29.95 in
(1014 mb)
SW 9.2 mph
(SW 15 kph)
- 10SM
15:13
Partly Cloudy
84°F / 29°C 72°F / 22°C 66% 29.95 in
(1014 mb)
SSE 13.8 mph
(SSE 22 kph)
- 10SM
14:52
Clear
84°F / 29°C 72°F / 22°C 66% 29.95 in
(1014 mb)
S 12.7 mph
(S 20 kph)
- 7SM
14:33
Clear
84°F / 29°C 72°F / 22°C 66% 29.95 in
(1014 mb)
S 10.4 mph
(S 17 kph)
- 7SM
14:12
Clear
84°F / 29°C 72°F / 22°C 66% 29.95 in
(1014 mb)
S 13.8 mph
(S 22 kph)
- 7SM
13:52
Clear
84°F / 29°C 72°F / 22°C 66% 29.95 in
(1014 mb)
S 12.7 mph
(S 20 kph)
- 10SM
13:33
Clear
84°F / 29°C 72°F / 22°C 66% 29.95 in
(1014 mb)
S 11.5 mph
(S 19 kph)
- 10SM
13:12
Clear
84°F / 29°C 72°F / 22°C 66% 29.95 in
(1014 mb)
S 9.2 mph
(S 15 kph)
- 10SM
12:52
Clear
84°F / 29°C 72°F / 22°C 66% 29.95 in
(1014 mb)
S 10.4 mph
(S 17 kph)
- 10SM
12:32
Clear
84°F / 29°C 72°F / 22°C 66% 29.95 in
(1014 mb)
S 6.9 mph
(S 11 kph)
- 10SM
12:12
Clear
82°F / 28°C 72°F / 22°C 70% 29.95 in
(1014 mb)
S 9.2 mph
(S 15 kph)
- 10SM
11:52
Clear
82°F / 28°C 72°F / 22°C 70% 29.98 in
(1015 mb)
S 6.9 mph
(S 11 kph)
- 10SM
11:32
Clear
82°F / 28°C 72°F / 22°C 70% 29.98 in
(1015 mb)
S 8.1 mph
(S 13 kph)
- 10SM
11:12
Clear
81°F / 27°C 70°F / 21°C 70% 29.98 in
(1015 mb)
SSE 9.2 mph
(SSE 15 kph)
- 10SM
10:52
Clear
81°F / 27°C 72°F / 22°C 74% 29.98 in
(1015 mb)
S 10.4 mph
(S 17 kph)
- 10SM
10:32
Clear
79°F / 26°C 70°F / 21°C 74% 29.98 in
(1015 mb)
S 8.1 mph
(S 13 kph)
- 10SM
10:13
Clear
79°F / 26°C 70°F / 21°C 74% 29.98 in
(1015 mb)
S 6.9 mph
(S 11 kph)
- 7SM
09:52
Clear
79°F / 26°C 70°F / 21°C 74% 29.98 in
(1015 mb)
SSE 6.9 mph
(SSE 11 kph)
- 10SM
09:32
Clear
77°F / 25°C 70°F / 21°C 79% 29.98 in
(1015 mb)
S 9.2 mph
(S 15 kph)
- 7SM
09:13
Clear
77°F / 25°C 70°F / 21°C 79% 29.98 in
(1015 mb)
S 8.1 mph
(S 13 kph)
- 7SM
08:52
Clear
75°F / 24°C 70°F / 21°C 83% 29.98 in
(1015 mb)
S 10.4 mph
(S 17 kph)
- 7SM
08:32
Clear
73°F / 23°C 70°F / 21°C 89% 29.98 in
(1015 mb)
S 8.1 mph
(S 13 kph)
- 7SM
08:13
Clear
73°F / 23°C 68°F / 20°C 83% 29.98 in
(1015 mb)
S 8.1 mph
(S 13 kph)
- 7SM
07:52
Clear
Fog And Mist
70°F / 21°C 68°F / 20°C 94% 30.01 in
(1016 mb)
S 9.2 mph
(S 15 kph)
- 5SM
07:32
Clear
Fog And Mist
70°F / 21°C 68°F / 20°C 94% 30.01 in
(1016 mb)
S 6.9 mph
(S 11 kph)
- 4SM
07:13
Clear
Fog And Mist
68°F / 20°C 68°F / 20°C 100% 30.01 in
(1016 mb)
S 4.6 mph
(S 7 kph)
- 2 1/2SM
06:52
Obscured
Fog And Mist
68°F / 20°C 66°F / 19°C 94% 30.01 in
(1016 mb)
S 4.6 mph
(S 7 kph)
- 1 1/4SM
06:32
Obscured
Fog And Mist
68°F / 20°C 66°F / 19°C 94% 30.01 in
(1016 mb)
SSE 4.6 mph
(SSE 7 kph)
- 1 1/4SM
06:12
Obscured
Fog And Mist
66°F / 19°C 66°F / 19°C 100% 30.01 in
(1016 mb)
S 3.5 mph
(S 6 kph)
- 3/4SM
05:53
Mostly Cloudy
Fog And Mist
66°F / 19°C 64°F / 18°C 94% 30.01 in
(1016 mb)
S 4.6 mph
(S 7 kph)
- 3/4SM
05:32
Overcast
Fog
66°F / 19°C 66°F / 19°C 100% 29.98 in
(1015 mb)
S 4.6 mph
(S 7 kph)
- M1/4SM
05:12
Overcast
Fog
66°F / 19°C 66°F / 19°C 100% 29.98 in
(1015 mb)
S 4.6 mph
(S 7 kph)
- M1/4SM
04:53
Overcast
Fog
68°F / 20°C 66°F / 19°C 94% 29.98 in
(1015 mb)
S 3.5 mph
(S 6 kph)
- M1/4SM
04:33
Overcast
Fog
68°F / 20°C 66°F / 19°C 94% 29.98 in
(1015 mb)
SSE 4.6 mph
(SSE 7 kph)
- 1/4SM
04:13
Partly Cloudy
Fog And Mist
68°F / 20°C 66°F / 19°C 94% 29.98 in
(1015 mb)
S 5.8 mph
(S 9 kph)
- 1 1/4SM
03:52
Obscured
Fog And Mist
68°F / 20°C 66°F / 19°C 94% 29.98 in
(1015 mb)
S 5.8 mph
(S 9 kph)
- 1 3/4SM
03:32
Clear
Fog And Mist
68°F / 20°C 66°F / 19°C 94% 29.98 in
(1015 mb)
SSE 5.8 mph
(SSE 9 kph)
- 2SM
03:13
Clear
Fog And Mist
68°F / 20°C 68°F / 20°C 100% 29.98 in
(1015 mb)
SW 4.6 mph
(SW 7 kph)
- 2 1/2SM
02:52
Clear
Fog And Mist
68°F / 20°C 66°F / 19°C 94% 29.98 in
(1015 mb)
SSE 4.6 mph
(SSE 7 kph)
- 2 1/2SM
02:32
Clear
Fog And Mist
70°F / 21°C 68°F / 20°C 94% 29.98 in
(1015 mb)
SSE 5.8 mph
(SSE 9 kph)
- 3SM
02:13
Partly Cloudy
Fog And Mist
70°F / 21°C 68°F / 20°C 94% 29.98 in
(1015 mb)
S 6.9 mph
(S 11 kph)
- 4SM
01:52
Clear
Fog And Mist
70°F / 21°C 68°F / 20°C 94% 29.98 in
(1015 mb)
SSE 4.6 mph
(SSE 7 kph)
- 4SM
01:32
Clear
Fog And Mist
70°F / 21°C 68°F / 20°C 94% 29.98 in
(1015 mb)
SSE 6.9 mph
(SSE 11 kph)
- 4SM
01:12
Clear
Fog And Mist
72°F / 22°C 68°F / 20°C 88% 29.98 in
(1015 mb)
SSE 5.8 mph
(SSE 9 kph)
- 5SM
00:52
Clear
72°F / 22°C 68°F / 20°C 88% 29.98 in
(1015 mb)
S 5.8 mph
(S 9 kph)
- 7SM
00:32
Clear
72°F / 22°C 68°F / 20°C 88% 29.98 in
(1015 mb)
SW 5.8 mph
(SW 9 kph)
- 7SM
00:12
Clear
Fog And Mist
72°F / 22°C 68°F / 20°C 88% 29.98 in
(1015 mb)
SW 4.6 mph
(SW 7 kph)
- 5SM
Time Weather Temperature Dewpoint Humidity Pressure Winds Precip Visibility


Weather for websites

WeatherForYou.com, LLC is not responsible for any damages or problems caused by this service. Current weather conditions are obtained from the closest station including government and personal stations which may have varying degrees of accuracy. Weather forecasts are derived from the NOAA NDFD. Like all things, this site belongs to Jesus Christ... He just trusts us to maintain it. If you have any questions or comments email webmaster@weatherforyou.com

Copyright © 2015, WeatherForYou.com LLC. All rights reserved.